FW9020 Weather Reports


Display with metric or nautical units.
time (UTC)temp
F
wind
direction
speed
MPH
gust
MPH
rain 1hr
in
rain 24hr
in
rain mn
in
humidity
%
barometer
mb
20260505024703 62 214 3.0 3.0 0.00 0.00 0.00 66 1000.6
20260505024200 62 229 1.0 1.0 0.00 0.00 0.00 65 1000.9
20260505023657 63 201 3.0 5.0 0.00 0.00 0.00 62 1000.9
20260505023154 64 204 2.0 3.0 0.00 0.00 0.00 61 1000.9
20260505022652 64 235 3.0 3.0 0.00 0.00 0.00 59 1000.6
20260505022149 64 235 3.0 3.0 0.00 0.00 0.00 59 1000.9
20260505021645 63 220 4.0 6.0 0.00 0.00 0.00 59 1000.9
20260505021142 64 202 3.0 3.0 0.00 0.00 0.00 57 1000.9
20260505020638 64 202 3.0 3.0 0.00 0.00 0.00 57 1000.6
20260505020134 63 229 2.0 2.0 0.00 0.00 0.00 57 1000.6
20260505015631 63 229 2.0 2.0 0.00 0.00 0.00 57 1000.6
20260505015128 63 215 1.0 1.0 0.00 0.00 0.00 57 1000.6
20260505014624 63 215 1.0 1.0 0.00 0.00 0.00 57 1000.6
20260505014122 63 203 3.0 3.0 0.00 0.00 0.00 56 1000.6
20260505013619 63 195 1.0 2.0 0.00 0.00 0.00 56 1000.6
20260505013116 63 195 1.0 2.0 0.00 0.00 0.00 56 1000.9
20260505012615 64 213 2.0 3.0 0.00 0.00 0.00 55 1000.6
20260505012111 64 223 1.0 1.0 0.00 0.00 0.00 53 1000.6
20260505011606 64 215 2.0 2.0 0.00 0.00 0.00 53 1000.6
20260505011104 64 229 0.0 0.0 0.00 0.00 0.00 54 1000.6
20260505010559 64 228 0.0 1.0 0.00 0.00 0.00 54 1000.6
20260505010056 64 237 0.0 0.0 0.00 0.00 0.00 53 1000.6
20260505005552 65 233 0.0 0.0 0.00 0.00 0.00 52 1000.6
20260505005049 66 231 0.0 0.0 0.00 0.00 0.00 51 1000.6
20260505004546 66 218 1.0 2.0 0.00 0.00 0.00 50 1000.6
20260505004043 66 258 2.0 3.0 0.00 0.00 0.00 50 1000.6
20260505003541 67 240 4.0 5.0 0.00 0.00 0.00 49 1000.6
20260505003038 67 246 2.0 3.0 0.00 0.00 0.00 50 1000.6
20260505002537 67 232 0.0 1.0 0.00 0.00 0.00 50 1000.6
20260505002032 67 253 3.0 6.0 0.00 0.00 0.00 48 1000.6
20260505001528 68 230 2.0 2.0 0.00 0.00 0.00 48 1000.9
20260505001025 68 245 2.0 2.0 0.00 0.00 0.00 49 1000.6
20260505000523 69 241 2.0 2.0 0.00 0.00 0.00 47 1000.9
20260505000020 69 241 2.0 2.0 0.00 0.00 0.00 47 1000.6
20260504235517 70 261 5.0 7.0 0.00 0.00 0.00 46 1000.9
20260504235013 70 254 6.0 10.0 0.00 0.00 0.00 46 1000.9
20260504234511 70 254 6.0 10.0 0.00 0.00 0.00 46 1000.9
20260504234008 71 228 4.0 6.0 0.00 0.00 0.00 45 1000.6
20260504233503 71 228 4.0 6.0 0.00 0.00 0.00 45 1000.6
20260504233000 71 261 5.0 6.0 0.00 0.00 0.00 46 1000.9
20260504232457 71 251 6.0 7.0 0.00 0.00 0.00 46 1000.6
20260504231954 71 253 7.0 8.0 0.00 0.00 0.00 46 1000.9
20260504231450 71 241 4.0 6.0 0.00 0.00 0.00 48 1000.9
20260504230947 71 240 4.0 9.0 0.00 0.00 0.00 46 1000.9
20260504230444 72 252 4.0 6.0 0.00 0.00 0.00 50 1000.9
20260504225943 72 250 10.0 11.0 0.00 0.00 0.00 47 1000.9
20260504225439 71 265 5.0 7.0 0.00 0.00 0.00 49 1000.9
20260504224936 71 225 4.0 5.0 0.00 0.00 0.00 48 1000.9
20260504224432 71 231 8.0 10.0 0.00 0.00 0.00 49 1000.9
20260504223930 71 216 3.0 6.0 0.00 0.00 0.00 50 1001.3
20260504223425 71 276 8.0 9.0 0.00 0.00 0.00 48 1000.9
20260504222921 71 234 3.0 3.0 0.00 0.00 0.00 49 1000.9
20260504222419 71 237 4.0 5.0 0.00 0.00 0.00 48 1000.9
20260504221917 72 266 7.0 9.0 0.00 0.00 0.00 44 1000.9
20260504221414 72 243 8.0 11.0 0.00 0.00 0.00 43 1000.9
20260504220911 72 257 11.0 14.0 0.00 0.00 0.00 43 1001.3
20260504220407 72 283 5.0 7.0 0.00 0.00 0.00 48 1001.3
20260504215904 71 216 8.0 13.0 0.00 0.00 0.00 47 1000.9
20260504215401 71 234 7.0 10.0 0.00 0.00 0.00 45 1001.3
20260504214857 71 209 5.0 10.0 0.00 0.00 0.00 46 1001.3
20260504214354 71 223 13.0 17.0 0.00 0.00 0.00 45 1001.3
20260504213851 72 297 4.0 7.0 0.00 0.00 0.00 47 1001.3
20260504213346 73 266 8.0 10.0 0.00 0.00 0.00 46 1000.9
20260504212844 73 228 7.0 11.0 0.00 0.00 0.00 44 1001.3
20260504212340 73 224 9.0 11.0 0.00 0.00 0.00 44 1000.9
20260504211838 73 219 8.0 10.0 0.00 0.00 0.00 45 1000.9
20260504211334 73 244 5.0 7.0 0.00 0.00 0.00 45 1000.9
20260504210832 73 207 9.0 11.0 0.00 0.00 0.00 45 1001.3
20260504210328 73 259 5.0 6.0 0.00 0.00 0.00 45 1000.9
20260504205825 72 279 9.0 13.0 0.00 0.00 0.00 45 1000.9
20260504205323 73 244 13.0 16.0 0.00 0.00 0.00 43 1000.9
20260504204821 73 243 9.0 13.0 0.00 0.00 0.00 44 1000.9
20260504204319 73 258 15.0 17.0 0.00 0.00 0.00 42 1001.3
20260504203818 73 226 6.0 7.0 0.00 0.00 0.00 45 1001.3
20260504203315 73 237 10.0 11.0 0.00 0.00 0.00 46 1001.3
20260504202810 73 284 9.0 11.0 0.00 0.00 0.00 48 1001.3
20260504202308 73 235 5.0 7.0 0.00 0.00 0.00 47 1001.3
20260504201804 73 245 10.0 10.0 0.00 0.00 0.00 47 1001.3
20260504201302 73 248 6.0 10.0 0.00 0.00 0.00 48 1001.3
20260504200759 73 221 8.0 11.0 0.00 0.00 0.00 47 1001.3
20260504200255 74 266 3.0 6.0 0.00 0.00 0.00 50 1001.3
20260504195752 73 235 2.0 3.0 0.00 0.00 0.00 50 1001.7
20260504195248 73 239 8.0 9.0 0.00 0.00 0.00 50 1001.3
20260504194745 73 231 5.0 8.0 0.00 0.00 0.00 50 1002.0
20260504194241 72 214 5.0 7.0 0.00 0.00 0.00 51 1002.0
20260504193737 72 268 13.0 15.0 0.00 0.00 0.00 50 1002.0
20260504193235 72 251 8.0 13.0 0.00 0.00 0.00 49 1002.0
20260504192733 72 244 11.0 13.0 0.00 0.00 0.00 54 1002.0
20260504192231 72 264 15.0 18.0 0.00 0.00 0.00 50 1002.0
20260504191729 72 245 9.0 10.0 0.00 0.00 0.00 53 1002.4
20260504191226 71 262 10.0 17.0 0.00 0.00 0.00 53 1002.4
20260504190721 71 258 14.0 15.0 0.00 0.00 0.00 53 1002.4
20260504190218 71 237 9.0 11.0 0.00 0.00 0.00 53 1002.4
20260504185714 71 238 12.0 16.0 0.00 0.00 0.00 55 1002.7
20260504185211 70 240 12.0 14.0 0.00 0.00 0.00 57 1002.7
20260504184707 70 240 12.0 14.0 0.00 0.00 0.00 57 1002.7
20260504184203 70 240 12.0 14.0 0.00 0.00 0.00 57 1002.7
20260504183659 70 129 4.0 7.0 0.00 0.00 0.00 57 1003.1
20260504183156 70 190 6.0 8.0 0.00 0.00 0.00 55 1003.1
20260504182654 69 208 4.0 7.0 0.00 0.00 0.00 57 1003.1
20260504182152 69 227 7.0 11.0 0.00 0.00 0.00 58 1003.1
20260504181649 69 231 3.0 5.0 0.00 0.00 0.00 59 1003.1
20260504181147 69 230 10.0 13.0 0.00 0.00 0.00 59 1003.1
20260504180646 69 230 10.0 13.0 0.00 0.00 0.00 59 1003.1
20260504180144 69 238 5.0 7.0 0.00 0.00 0.00 59 1003.1
20260504175641 68 270 14.0 20.0 0.00 0.00 0.00 58 1003.1
20260504175137 68 240 5.0 9.0 0.00 0.00 0.00 59 1003.1
20260504174636 67 256 8.0 16.0 0.00 0.00 0.00 62 1003.4
20260504174131 67 179 5.0 7.0 0.00 0.00 0.00 60 1003.4
20260504173629 67 179 5.0 7.0 0.00 0.00 0.00 60 1003.7
20260504173126 67 247 4.0 6.0 0.00 0.00 0.00 60 1003.7
20260504172623 67 240 5.0 7.0 0.00 0.00 0.00 59 1003.4
20260504172120 67 269 5.0 7.0 0.00 0.00 0.00 60 1003.7
20260504171616 67 260 7.0 9.0 0.00 0.00 0.00 58 1003.7
20260504171113 67 228 6.0 9.0 0.00 0.00 0.00 60 1003.7
20260504170609 66 189 8.0 10.0 0.00 0.00 0.00 59 1003.7
20260504170107 66 224 5.0 7.0 0.00 0.00 0.00 58 1003.7
20260504150952 63 258 11.0 15.0 0.00 0.00 0.00 62 1004.4
20260504150449 63 247 4.0 5.0 0.00 0.00 0.00 63 1004.4
20260504140916 61 238 4.0 7.0 0.00 0.00 0.00 62 1004.4
20260504140412 61 244 8.0 15.0 0.00 0.00 0.00 62 1004.8
20260504130337 59 227 5.0 6.0 0.00 0.00 0.00 65 1005.1
20260504120300 56 141 7.0 9.0 0.00 0.00 0.00 66 1005.1
20260504110224 53 234 5.0 6.0 0.00 0.00 0.00 69 1005.4
20260504100148 0 0.0 0.0 0.00 0.00 0.00 1005.1
20260504090110 0 0.0 0.0 0.00 0.00 0.00 1005.1
20260504081541 0 0.0 0.0 0.00 0.00 0.00 1005.4
20260504081036 0 0.0 0.0 0.00 0.00 0.00 1005.4
20260504080533 0 0.0 0.0 0.00 0.00 0.00 1005.8
20260504050346 56 249 9.0 10.0 0.00 0.00 0.00 62 1006.8
20260504045843 0 0.0 0.0 0.00 0.00 0.00 1006.8
20260504045338 0 0.0 0.0 0.00 0.00 0.00 1006.8
20260504044835 0 0.0 0.0 0.00 0.00 0.00 1006.8
20260504044333 0 0.0 0.0 0.00 0.00 0.00 1006.8
20260504043830 0 0.0 0.0 0.00 0.00 0.00 1006.8
20260504043326 0 0.0 0.0 0.00 0.00 0.00 1006.8
20260504042824 0 0.0 0.0 0.00 0.00 0.00 1006.8
20260504042320 0 0.0 0.0 0.00 0.00 0.00 1006.8
20260504041816 0 0.0 0.0 0.00 0.00 0.00 1007.1
20260504041313 0 0.0 0.0 0.00 0.00 0.00 1006.8
20260504040809 0 0.0 0.0 0.00 0.00 0.00 1006.8
20260504040307 0 0.0 0.0 0.00 0.00 0.00 1006.8
20260504035803 0 0.0 0.0 0.00 0.00 0.00 1006.8
20260504035300 0 0.0 0.0 0.00 0.00 0.00 1007.1
20260504034757 0 0.0 0.0 0.00 0.00 0.00 1007.1
20260504034255 0 0.0 0.0 0.00 0.00 0.00 1006.8
20260504033752 0 0.0 0.0 0.00 0.00 0.00 1007.1
20260504033249 0 0.0 0.0 0.00 0.00 0.00 1006.8
20260504032746 0 0.0 0.0 0.00 0.00 0.00 1007.1
20260504032243 0 0.0 0.0 0.00 0.00 0.00 1007.1
20260504031739 0 0.0 0.0 0.00 0.00 0.00 1007.1
20260504031238 0 0.0 0.0 0.00 0.00 0.00 1007.1
20260504030733 0 0.0 0.0 0.00 0.00 0.00 1007.5
20260504030230 0 0.0 0.0 0.00 0.00 0.00 1007.1
20260504025727 0 0.0 0.0 0.00 0.00 0.00 1007.1
20260504025224 0 0.0 0.0 0.00 0.00 0.00 1007.1